Regional Weather Roundup
Issued by NWS

Home | Current Version | Previous Version | Text Only | Print | Product List | Glossary Off
Versions: 1 2 3 4 5 6 7 8 9 10 11 12 13 14 15 16 17 18 19 20 21 22 23 24 25 26 27

000
ASUS45 KTFX 212110
RWRMT
MONTANA REGIONAL WEATHER ROUNDUP
NATIONAL WEATHER SERVICE GREAT FALLS MT
300 PM MDT MON MAY 21 2018

NOTE: "FAIR" INDICATES FEW OR NO CLOUDS BELOW 12000 FEET WITH NO
SIGNIFICANT WEATHER AND/OR OBSTRUCTIONS TO VISIBILITY.

MTZ001>007-043-212200-
WEST OF THE DIVIDE

CITY           SKY/WX    TMP DP  RH WIND       PRES   REMARKS
KALISPELL      PTSUNNY   72  47  40 S6        29.92F
MISSOULA       CLOUDY    66  50  56 NE14      29.94F
BUTTE          PTSUNNY   65  44  46 NW10      29.99F
MULLAN PASS    LGT RAIN  56  45  66 CALM      30.05F
ANACONDA         N/A     63  45  51 N5        29.97S
DEER LODGE       N/A     61  48  63 NW14      29.98F
HAMILTON         N/A     70  48  46 MISG      29.95S
PLAINS           N/A     69  52  54 N8        29.94S
RONAN            N/A     70  48  46 CALM      29.95F
$$

MTZ008-052>055-212200-
SOUTHWEST MONTANA

CITY           SKY/WX    TMP DP  RH WIND       PRES   REMARKS
BOZEMAN        FAIR      71  45  39 SE6       29.93F
DILLON         FAIR      69  46  43 W3        29.94F
ENNIS          PTSUNNY   66  41  39 VRB5      29.99F
W YELLOWSTONE  DRIZZLE   59  43  55 E10       30.02R
TWIN BRIDGES     N/A     71  47  42 SE3       29.93F
$$

MTZ009-010-012-014-046-048-049-054-212200-
EAST SLOPES AND CENTRAL MONTANA

CITY           SKY/WX    TMP DP  RH WIND       PRES   REMARKS
CUT BANK       FAIR      70  38  31 N7        29.93F
GREAT FALLS    PTSUNNY   72  45  37 W5        29.93F
MALMSTROM AFB  FAIR      71  50  47 CALM      29.93S
HELENA         CLOUDY    60  53  77 NW7       29.96R
AUGUSTA        FAIR      66  49  54 NW8       29.97S
BOWMANS CRNR   FAIR      66  45  45 E3        29.95S
CHOTEAU          N/A     70  41  35 NW8       29.97S
POWER          PTSUNNY   72  38  30 N5        29.93S
RAYNESFORD     LGT RAIN  62  51  67 SW6       29.97R
ULM            FAIR      68  48  48 W5        29.94S
WHITE SULPHUR    N/A     66  48  52 NW18G24   29.94S
$$

MTZ011-013-016-021-045-047-050-051-212200-
NORTH CENTRAL MONTANA

CITY           SKY/WX    TMP DP  RH WIND       PRES   REMARKS
HAVRE          CLOUDY    74  50  42 SE16      29.84F
LEWISTOWN      FAIR      71  49  45 NW10G16   29.93S
N BAR RANCH    PTSUNNY   66  54  63 W8        29.96F
CHINOOK          N/A     72  54  53 SW6       29.85S
DENTON         FAIR      73  53  49 CALM      29.89R
GEYSER         PTSUNNY   63  49  60 W15       29.95R
GRASS RANGE    FAIR      67  52  57 W5        29.88F
JUDITH GAP     FAIR      69  49  48 N10       29.94S
ROY            FAIR      69  55  60 NW8       29.89S
STANFORD       LGT RAIN  59  52  77 W15       29.96S
WINIFRED       FAIR      69  52  54 CALM      29.91S
$$

MTZ017>020-022>027-061-062-212200-
NORTHEAST MONTANA

CITY           SKY/WX    TMP DP  RH WIND       PRES   REMARKS
GLASGOW        FAIR      79  48  33 S12       29.84F
GLENDIVE       FAIR      76  51  41 S8        29.88F
JORDAN           N/A     77  50  38 CALM      29.85F
MALTA          SUNNY     77  50  38 S9        29.81S
SIDNEY         FAIR      78  49  35 S12G23    29.87F
WOLF POINT     FAIR      80  49  33 MISG      29.84F
PLENTYWOOD       N/A     79  41  25 SW6       29.86F
POPLAR           N/A     79  46  31 S6        29.85F
SCOBEY           N/A     77  45  32 S3        29.86F
$$

MTZ028>42-056>058-212200-
SOUTHCENTRAL AND SOUTHEAST MONTANA

CITY           SKY/WX    TMP DP  RH WIND       PRES   REMARKS
BAKER          FAIR      74  48  39 S12       29.91F
BILLINGS       FAIR      78  52  40 N9        29.88F
LIVINGSTON     LGT RAIN  66  46  48 W13       29.94R
MILES CITY     FAIR      75  53  46 VRB3      29.86F
BIG TIMBER     SUNNY     70  46  43 SE6       29.93S
EKALAKA          N/A     73  43  34 SE7       29.91F
FORSYTH          N/A     73  52  46 N6        29.85F
HARLOWTON      PTSUNNY   71  47  42 NE7       29.91F
LAUREL           N/A     77  50  38 NE7       29.89S
$$

REGIONAL REPORTS...DAKOTAS

CITY           SKY/WX    TMP DP  RH WIND       PRES   REMARKS
WILLISTON      FAIR      78  40  25 S7        29.88F
MINOT          FAIR      79  33  19 SE12G25   29.90F
DICKINSON      FAIR      75  36  24 S9G17     29.90F
BEACH          FAIR      73  43  33 S8        29.93F
CROSBY         FAIR      79  37  22 SW12G21   29.87F
TIOGA          FAIR      75  34  22 SW12G20   29.91F
WATFORD CITY   FAIR      77  37  24 VRB3G15   29.88F
BISMARCK       FAIR      72  49  44 MISG      29.94F
GRAND FORKS    FAIR      76  40  27 S6        29.94F
FARGO          CLOUDY    71  43  36 SE10      29.98S
BUFFALO SD       N/A     75  49  39 S12       29.85
RAPID CITY     FAIR      73  53  49 SE18      29.92S
$$

REGIONAL REPORTS...WYOMING/IDAHO/WASHINGTON

CITY           SKY/WX    TMP DP  RH WIND       PRES   REMARKS
GILLETTE       FAIR      76  44  32 VRB3      29.92S
SHERIDAN       FAIR      73  50  44 W3        29.91F
BUFFALO WY     FAIR      70  46  42 NW8       29.97S
CODY           LGT RAIN  59  48  67 CALM      29.99S
YELLOWSTONE LA   N/A     55  38  52 VRB6      30.10F
IDAHO FALLS    FAIR      72  44  36 SW6       29.93F
SALMON         CLOUDY    67  46  47 NW6       29.93F
BOISE          FAIR      75  51  43 W8        29.89F
SPOKANE        FAIR      74  49  41 VRB6      29.94F
$$

REGIONAL REPORTS...ALBERTA

CITY           SKY/WX    TMP DP  RH WIND       PRES   REMARKS
CARDSTON         N/A     72  39  30 E2          N/A
EDMONTON       MOSUNNY   75  43  31 W12G20    29.84S
FORT MCMURRAY  SUNNY     81  43  26 VRB2      29.72S
HIGH LEVEL     MOSUNNY   81  45  28 SW5       29.69F
LETHBRIDGE     PTSUNNY   73  41  31 CALM      29.90F
LLOYDMINSTER   PTSUNNY   77  43  29 W5        29.78F
MEDICINE HAT   MOSUNNY   79  43  27 N9G17     29.82F
MILK RIVER       N/A     73  41  31 NW8         N/A
ONEFOUR          N/A     75  41  29 NW14G21     N/A
PEACE RIVER    MOSUNNY   77  41  27 W12G21    29.80S
PINCHER CREEK    N/A    N/A N/A N/A VRB3        N/A
$$

REGIONAL REPORTS...SASKATCHEWAN

CITY           SKY/WX    TMP DP  RH WIND       PRES   REMARKS
CORONACH         N/A     79  41  25 S3          N/A
CYPRESS HILLS    N/A     72  36  26 NW9G18      N/A
ESTEVAN        MOSUNNY   79  39  24 S10G17    29.86F
PRINCE ALBERT  CLOUDY    82  45  26 SW10      29.73F
REGINA         MOSUNNY   81  43  26 SW3       29.80F
ROCKGLEN         N/A     77  39  25 SW6         N/A
SASKATOON      PTSUNNY   84  41  21 S8G17     29.73F
SWIFT CURRENT  MOSUNNY   82  41  23 W13G22    29.78F
VAL MARIE        N/A     79  37  22 S9G17       N/A
$$




USA.gov is the U.S. government's official web portal to all federal, state and local government web resources and services.